Location: PSU-Greenbush Astrophysical Observatory
(37.5140°N, 94.9880°W)
Time: 21:00:37
(UTC-05:00)

BEESAT - Pass Details

Date: 24 February 2020
Orbit: 700 x 709 km, 98.6° (Epoch: 06 April)

Event Time Altitude Azimuth Distance (km) Brightness Sun altitude
Rises 04:26:54 0° 138° (SE) 3,087 ? -30.7°
Reaches altitude 10° 04:29:24 10° 127° (SE) 2,171 ? -30.2°
Maximum altitude 04:33:26 28° 68° (ENE) 1,305 ? -29.5°
Drops below altitude 10° 04:37:29 10° 10° (N) 2,179 ? -28.7°
Sets 04:39:59 0° 360° (N) 3,100 ? -28.2°
